Location: Rosenheim
(47.8408°N, 12.2113°E)
Time: 14:54:20
(UTC+02:00)

ISS - Pass Details

Date: 06 January 2018
Orbit: 402 x 408 km, 51.6° (Epoch: 20 July)

Event Time Altitude Azimuth Distance (km) Brightness Sun altitude
Exits shadow 05:27:06 26° 51° (NE) 871 -1.8 -24.7°
Drops below altitude 10° 05:28:50 10° 66° (ENE) 1,501 -0.2 -24.4°
Enters shadow 06:24:07 -71° 269° (W) 12,471 3.6 -15.3°
Maximum altitude 07:02:37 49° 11° (NNE) 548 -3.3 -9.3°
